QPF
0.01 0.01 0.01 0.02 0.02 0.01 0.01 0.01 0.01 0.02 0.03 0.03 0.02 0.01 0.01 0.00 0.00 0.00 0.00 0.01 0.01 0.03 0.04 0.05 0.04 0.04 0.05 0.06 0.05 0.05 0.08 0.09 0.09 0.07 0.05 0.06 0.06 0.05 0.07 0.07 0.06 0.06 0.06
0.01 0.01 0.01 0.01 0.01 0.01 0.01 0.01 0.02 0.02 0.02 0.03 0.02 0.01 0.00 0.00 0.00 0.00 0.00 0.01 0.01 0.01 0.02 0.03 0.03 0.03 0.03 0.05 0.05 0.06 0.07 0.07 0.07 0.07 0.05 0.05 0.06 0.06 0.07 0.07 0.07 0.07 0.06
0.01 0.01 0.01 0.01 0.00 0.00 0.00 0.01 0.02 0.02 0.03 0.02 0.02 0.01 0.00 0.00 0.00 0.00 0.00 0.01 0.01 0.01 0.01 0.02 0.02 0.03 0.02 0.03 0.03 0.04 0.04 0.04 0.04 0.05 0.06 0.04 0.04 0.05 0.06 0.07 0.08 0.08 0.07
0.02 0.03 0.01 0.00 0.00 0.00 0.00 0.01 0.02 0.03 0.03 0.03 0.02 0.01 0.00 0.00 0.00 0.00 0.00 0.01 0.01 0.01 0.01 0.02 0.02 0.03 0.03 0.03 0.03 0.04 0.04 0.04 0.04 0.05 0.06 0.05 0.04 0.04 0.04 0.05 0.06 0.06 0.06
0.02 0.02 0.01 0.00 0.00 0.01 0.01 0.02 0.02 0.02 0.03 0.02 0.01 0.02 0.01 0.00 0.00 0.01 0.01 0.01 0.01 0.01 0.01 0.02 0.02 0.03 0.03 0.04 0.05 0.05 0.05 0.05 0.05 0.05 0.05 0.05 0.03 0.04 0.04 0.04 0.04 0.05 0.06
0.02 0.02 0.01 0.00 0.01 0.01 0.01 0.01 0.01 0.01 0.02 0.02 0.01 0.01 0.01 0.00 0.01 0.01 0.01 0.01 0.01 0.01 0.02 0.03 0.04 0.05 0.05 0.06 0.07 0.07 0.07 0.05 0.05 0.04 0.04 0.04 0.02 0.02 0.03 0.03 0.03 0.03 0.05
0.01 0.02 0.02 0.01 0.01 0.01 0.00 0.00 0.00 0.01 0.01 0.01 0.01 0.01 0.01 0.01 0.01 0.01 0.02 0.01 0.01 0.01 0.02 0.04 0.05 0.07 0.09 0.09 0.10 0.11 0.10 0.07 0.06 0.05 0.04 0.03 0.02 0.02 0.02 0.04 0.04 0.04 0.03
0.02 0.01 0.02 0.01 0.00 0.00 0.00 0.00 0.00 0.01 0.01 0.01 0.02 0.03 0.03 0.03 0.04 0.03 0.03 0.02 0.02 0.02 0.04 0.05 0.06 0.10 0.12 0.11 0.11 0.11 0.11 0.08 0.07 0.06 0.04 0.02 0.02 0.02 0.02 0.03 0.04 0.03 0.03
0.04 0.03 0.03 0.02 0.01 0.01 0.00 0.00 0.00 0.00 0.01 0.01 0.02 0.03 0.03 0.05 0.06 0.07 0.06 0.04 0.04 0.05 0.07 0.07 0.08 0.10 0.12 0.11 0.11 0.10 0.08 0.08 0.08 0.07 0.04 0.03 0.02 0.01 0.02 0.02 0.03 0.03 0.03
0.04 0.04 0.04 0.03 0.01 0.01 0.00 0.00 0.00 0.00 0.00 0.01 0.02 0.02 0.02 0.03 0.05 0.06 0.07 0.07 0.06 0.07 0.08 0.09 0.09 0.08 0.08 0.08 0.10 0.10 0.07 0.05 0.05 0.04 0.03 0.02 0.01 0.01 0.01 0.01 0.01 0.01 0.02
0.04 0.03 0.02 0.02 0.01 0.01 0.01 0.00 0.00 0.00 0.01 0.01 0.02 0.02 0.01 0.02 0.03 0.04 0.04 0.04 0.04 0.05 0.06 0.06 0.06 0.06 0.05 0.05 0.06 0.09 0.09 0.04 0.02 0.01 0.01 0.01 0.01 0.01 0.01 0.02 0.02 0.02 0.02
0.04 0.02 0.01 0.01 0.01 0.00 0.00 0.00 0.00 0.00 0.00 0.01 0.01 0.01 0.02 0.03 0.02 0.03 0.03 0.03 0.03 0.02 0.03 0.03 0.04 0.04 0.04 0.03 0.02 0.04 0.05 0.04 0.03 0.01 0.01 0.01 0.01 0.01 0.02 0.02 0.02 0.03 0.03
0.03 0.02 0.02 0.01 0.01 0.00 0.00 0.00 0.00 0.00 0.00 0.01 0.01 0.02 0.02 0.02 0.02 0.02 0.02 0.02 0.02 0.01 0.02 0.02 0.02 0.03 0.03 0.02 0.01 0.02 0.02 0.02 0.02 0.01 0.01 0.00 0.01 0.01 0.01 0.01 0.01 0.02 0.02
0.02 0.02 0.01 0.01 0.01 0.00 0.00 0.00 0.00 0.00 0.00 0.00 0.01 0.01 0.01 0.02 0.02 0.01 0.01 0.00 0.00 0.00 0.00 0.01 0.01 0.01 0.00 0.00 0.00 0.01 0.01 0.01 0.01 0.01 0.01 0.01 0.01 0.00 0.01 0.01 0.01 0.01 0.01
0.00 0.00 0.00 0.00 0.00 0.00 0.00 0.00 0.00 0.00 0.00 0.01 0.00 0.00 0.00 0.01 0.01 0.01 0.00 0.00 0.00 0.00 0.00 0.00 0.00 0.00 0.00 0.00 0.00 0.00 0.00 0.01 0.01 0.01 0.01 0.01 0.01 0.00 0.00 0.00 0.01 0.01 0.00
0.00 0.00 0.00 0.00 0.00 0.00 0.00 0.00 0.00 0.00 0.00 0.01 0.00 0.00 0.00 0.00 0.00 0.00 0.00 0.00 0.00 0.00 0.00 0.00 0.00 0.00 0.00 0.00 0.00 0.00 0.00 0.01 0.01 0.01 0.01 0.01 0.01 0.01 0.00 0.00 0.00 0.00 0.00
0.00 0.00 0.00 0.00 0.00 0.00 0.00 0.00 0.00 0.00 0.00 0.00 0.00 0.00 0.00 0.00 0.00 0.00 0.00 0.00 0.00 0.00 0.00 0.00 0.00 0.00 0.00 0.00 0.00 0.00 0.00 0.00 0.01 0.01 0.01 0.00 0.00 0.00 0.01 0.01 0.00 0.00 0.00
0.00 0.00 0.00 0.00 0.00 0.00 0.00 0.00 0.00 0.00 0.00 0.00 0.00 0.00 0.00 0.00 0.00 0.00 0.00 0.00 0.00 0.00 0.00 0.00 0.00 0.00 0.00 0.00 0.00 0.00 0.00 0.00 0.00 0.00 0.00 0.00 0.00 0.00 0.00 0.01 0.01 0.01 0.01
0.00 0.00 0.00 0.00 0.00 0.00 0.00 0.00 0.00 0.00 0.00 0.00 0.00 0.00 0.00 0.00 0.00 0.00 0.00 0.00 0.00 0.00 0.00 0.00 0.00 0.00 0.00 0.00 0.00 0.00 0.00 0.00 0.00 0.00 0.00 0.00 0.00 0.00 0.00 0.00 0.00 0.00 0.00
0.00 0.00 0.00 0.00 0.00 0.00 0.00 0.00 0.00 0.00 0.00 0.00 0.00 0.00 0.00 0.00 0.00 0.00 0.00 0.00 0.00 0.00 0.00 0.00 0.00 0.00 0.00 0.00 0.00 0.00 0.00 0.00 0.00 0.00 0.00 0.00 0.00 0.00 0.00 0.00 0.00 0.00 0.00
0.00 0.00 0.00 0.00 0.00 0.00 0.00 0.00 0.00 0.00 0.00 0.00 0.00 0.00 0.00 0.00 0.00 0.00 0.00 0.00 0.00 0.00 0.00 0.00 0.00 0.00 0.00 0.00 0.00 0.00 0.00 0.00 0.00 0.00 0.00 0.00 0.00 0.00 0.00 0.00 0.00 0.00 0.00
0.00 0.00 0.00 0.00 0.00 0.00 0.00 0.00 0.00 0.00 0.00 0.00 0.00 0.00 0.00 0.00 0.00 0.00 0.00 0.00 0.00 0.00 0.00 0.00 0.00 0.00 0.00 0.00 0.00 0.00 0.00 0.00 0.00 0.00 0.00 0.00 0.00 0.00 0.00 0.00 0.00 0.00 0.00
0.00 0.00 0.00 0.00 0.00 0.00 0.00 0.00 0.00 0.00 0.00 0.00 0.00 0.00 0.00 0.00 0.00 0.00 0.00 0.00 0.00 0.00 0.00 0.00 0.00 0.00 0.00 0.00 0.00 0.00 0.00 0.00 0.00 0.00 0.00 0.00 0.00 0.00 0.00 0.00 0.00 0.00 0.00
0.00 0.00 0.00 0.00 0.00 0.00 0.00 0.00 0.00 0.00 0.00 0.00 0.00 0.00 0.00 0.00 0.00 0.00 0.00 0.00 0.00 0.00 0.00 0.00 0.00 0.00 0.00 0.00 0.00 0.00 0.00 0.00 0.00 0.00 0.00 0.00 0.00 0.00 0.00 0.00 0.00 0.00 0.00
0.00 0.00 0.00 0.00 0.00 0.00 0.00 0.00 0.00 0.00 0.00 0.00 0.00 0.00 0.00 0.00 0.00 0.00 0.00 0.00 0.00 0.00 0.00 0.00 0.00 0.00 0.00 0.00 0.00 0.00 0.00 0.00 0.00 0.00 0.00 0.00 0.00 0.00 0.00 0.00 0.00 0.00 0.00
0.00 0.00 0.00 0.00 0.00 0.00 0.00 0.00 0.00 0.00 0.00 0.00 0.00 0.00 0.00 0.00 0.00 0.00 0.00 0.00 0.00 0.00 0.00 0.00 0.00 0.00 0.00 0.00 0.00 0.00 0.00 0.00 0.00 0.00 0.00 0.00 0.00 0.00 0.00 0.00 0.00 0.00 0.00
MSLP
1018.07 1018.34 1018.63 1018.95 1019.26 1019.55 1019.80 1020.00 1020.16 1020.26 1020.30 1020.28 1020.20 1020.06 1019.85 1019.59 1019.29 1018.97 1018.65 1018.36 1018.13 1017.97 1017.89 1017.89 1017.96 1018.09 1018.27 1018.47 1018.71 1018.97 1019.26 1019.60 1019.98 1020.42 1020.92 1021.45 1022.00 1022.56 1023.08 1023.56 1023.98 1024.33 1024.63
1018.32 1018.63 1018.96 1019.30 1019.63 1019.94 1020.20 1020.41 1020.56 1020.65 1020.67 1020.63 1020.51 1020.33 1020.09 1019.79 1019.46 1019.12 1018.79 1018.48 1018.23 1018.05 1017.94 1017.90 1017.93 1018.01 1018.14 1018.31 1018.52 1018.78 1019.10 1019.48 1019.92 1020.43 1020.99 1021.58 1022.18 1022.75 1023.28 1023.74 1024.13 1024.44 1024.70
1018.58 1018.94 1019.31 1019.67 1020.01 1020.32 1020.58 1020.78 1020.92 1020.99 1020.99 1020.92 1020.78 1020.57 1020.31 1020.00 1019.67 1019.32 1018.99 1018.69 1018.44 1018.24 1018.10 1018.02 1018.00 1018.02 1018.10 1018.22 1018.40 1018.64 1018.96 1019.36 1019.84 1020.39 1020.99 1021.62 1022.23 1022.82 1023.34 1023.78 1024.14 1024.42 1024.64
1018.87 1019.27 1019.67 1020.04 1020.38 1020.68 1020.92 1021.10 1021.22 1021.26 1021.25 1021.16 1021.01 1020.79 1020.53 1020.23 1019.90 1019.57 1019.25 1018.95 1018.70 1018.49 1018.33 1018.21 1018.13 1018.10 1018.11 1018.18 1018.31 1018.53 1018.83 1019.22 1019.71 1020.27 1020.89 1021.54 1022.16 1022.75 1023.26 1023.68 1024.01 1024.27 1024.45
1019.22 1019.65 1020.06 1020.43 1020.75 1021.02 1021.23 1021.37 1021.46 1021.49 1021.46 1021.36 1021.21 1021.00 1020.75 1020.46 1020.15 1019.84 1019.53 1019.25 1018.99 1018.76 1018.57 1018.40 1018.28 1018.19 1018.14 1018.15 1018.24 1018.41 1018.68 1019.06 1019.54 1020.10 1020.71 1021.35 1021.98 1022.55 1023.05 1023.46 1023.77 1024.00 1024.17
1019.66 1020.09 1020.48 1020.83 1021.11 1021.33 1021.50 1021.61 1021.67 1021.68 1021.63 1021.54 1021.40 1021.21 1020.98 1020.71 1020.42 1020.12 1019.83 1019.54 1019.27 1019.02 1018.79 1018.59 1018.41 1018.26 1018.16 1018.12 1018.16 1018.29 1018.53 1018.88 1019.33 1019.88 1020.48 1021.11 1021.72 1022.28 1022.77 1023.16 1023.47 1023.69 1023.84
1020.19 1020.60 1020.95 1021.24 1021.47 1021.64 1021.75 1021.83 1021.86 1021.85 1021.81 1021.72 1021.60 1021.43 1021.22 1020.98 1020.70 1020.42 1020.12 1019.82 1019.53 1019.26 1018.99 1018.75 1018.53 1018.34 1018.19 1018.11 1018.11 1018.20 1018.41 1018.73 1019.16 1019.68 1020.26 1020.86 1021.45 1022.00 1022.47 1022.86 1023.16 1023.37 1023.52
1020.80 1021.17 1021.46 1021.68 1021.84 1021.95 1022.01 1022.04 1022.05 1022.04 1022.00 1021.93 1021.82 1021.68 1021.49 1021.27 1021.01 1020.72 1020.42 1020.10 1019.79 1019.49 1019.20 1018.92 1018.67 1018.45 1018.28 1018.17 1018.14 1018.21 1018.39 1018.69 1019.09 1019.57 1020.12 1020.70 1021.26 1021.79 1022.24 1022.62 1022.91 1023.12 1023.26
1021.48 1021.78 1022.00 1022.15 1022.24 1022.28 1022.30 1022.29 1022.28 1022.26 1022.23 1022.18 1022.09 1021.97 1021.80 1021.59 1021.33 1021.05 1020.74 1020.41 1020.09 1019.76 1019.45 1019.16 1018.90 1018.67 1018.48 1018.37 1018.33 1018.39 1018.55 1018.82 1019.18 1019.63 1020.14 1020.68 1021.20 1021.70 1022.12 1022.48 1022.75 1022.95 1023.09
1022.17 1022.40 1022.56 1022.64 1022.66 1022.65 1022.62 1022.59 1022.56 1022.54 1022.52 1022.48 1022.41 1022.31 1022.15 1021.95 1021.70 1021.41 1021.09 1020.76 1020.43 1020.11 1019.79 1019.51 1019.25 1019.03 1018.85 1018.75 1018.71 1018.76 1018.91 1019.15 1019.48 1019.89 1020.34 1020.83 1021.30 1021.75 1022.13 1022.45 1022.70 1022.88 1023.00
1022.82 1023.00 1023.09 1023.12 1023.09 1023.04 1022.99 1022.94 1022.90 1022.88 1022.86 1022.83 1022.78 1022.68 1022.54 1022.34 1022.09 1021.80 1021.49 1021.17 1020.84 1020.53 1020.24 1019.97 1019.74 1019.54 1019.39 1019.30 1019.28 1019.33 1019.46 1019.67 1019.96 1020.31 1020.70 1021.12 1021.53 1021.91 1022.24 1022.51 1022.72 1022.86 1022.95
1023.38 1023.51 1023.58 1023.57 1023.52 1023.45 1023.38 1023.33 1023.29 1023.27 1023.26 1023.23 1023.18 1023.08 1022.94 1022.74 1022.50 1022.22 1021.92 1021.61 1021.31 1021.03 1020.76 1020.53 1020.34 1020.18 1020.06 1019.99 1019.98 1020.03 1020.14 1020.31 1020.55 1020.83 1021.15 1021.49 1021.82 1022.12 1022.38 1022.59 1022.75 1022.85 1022.90
1023.80 1023.92 1023.97 1023.96 1023.91 1023.85 1023.78 1023.74 1023.70 1023.69 1023.67 1023.64 1023.58 1023.48 1023.34 1023.14 1022.90 1022.63 1022.35 1022.07 1021.80 1021.55 1021.33 1021.14 1020.98 1020.86 1020.77 1020.72 1020.71 1020.74 1020.83 1020.96 1021.13 1021.35 1021.59 1021.84 1022.08 1022.31 1022.49 1022.64 1022.73 1022.79 1022.79
1024.08 1024.21 1024.27 1024.27 1024.25 1024.21 1024.16 1024.13 1024.11 1024.09 1024.08 1024.04 1023.97 1023.86 1023.70 1023.50 1023.27 1023.01 1022.75 1022.49 1022.25 1022.04 1021.86 1021.71 1021.58 1021.49 1021.41 1021.37 1021.35 1021.37 1021.41 1021.49 1021.61 1021.75 1021.91 1022.09 1022.25 1022.40 1022.51 1022.59 1022.64 1022.64 1022.61
1024.22 1024.37 1024.46 1024.50 1024.51 1024.51 1024.50 1024.49 1024.48 1024.47 1024.44 1024.39 1024.30 1024.18 1024.01 1023.80 1023.57 1023.32 1023.08 1022.84 1022.63 1022.45 1022.29 1022.16 1022.06 1021.97 1021.90 1021.85 1021.81 1021.80 1021.80 1021.83 1021.89 1021.97 1022.07 1022.17 1022.27 1022.35 1022.41 1022.44 1022.44 1022.40 1022.33
1024.25 1024.42 1024.55 1024.63 1024.69 1024.73 1024.76 1024.77 1024.78 1024.77 1024.74 1024.67 1024.57 1024.42 1024.24 1024.03 1023.79 1023.55 1023.32 1023.10 1022.90 1022.73 1022.58 1022.46 1022.35 1022.26 1022.17 1022.09 1022.03 1021.98 1021.95 1021.94 1021.95 1021.98 1022.03 1022.08 1022.14 1022.18 1022.20 1022.19 1022.15 1022.09 1021.99
1024.23 1024.42 1024.57 1024.70 1024.80 1024.87 1024.93 1024.97 1024.99 1024.98 1024.94 1024.86 1024.74 1024.58 1024.39 1024.17 1023.93 1023.70 1023.47 1023.25 1023.06 1022.88 1022.73 1022.59 1022.47 1022.34 1022.23 1022.12 1022.02 1021.93 1021.87 1021.83 1021.81 1021.81 1021.83 1021.86 1021.89 1021.90 1021.90 1021.87 1021.81 1021.72 1021.60
1024.18 1024.38 1024.55 1024.70 1024.83 1024.94 1025.02 1025.08 1025.10 1025.09 1025.05 1024.96 1024.82 1024.65 1024.45 1024.23 1024.00 1023.76 1023.53 1023.32 1023.12 1022.93 1022.76 1022.59 1022.43 1022.27 1022.12 1021.97 1021.84 1021.72 1021.63 1021.56 1021.53 1021.52 1021.53 1021.55 1021.57 1021.57 1021.56 1021.51 1021.43 1021.32 1021.18
1024.13 1024.32 1024.50 1024.66 1024.80 1024.91 1025.01 1025.07 1025.10 1025.09 1025.03 1024.94 1024.80 1024.63 1024.43 1024.22 1023.99 1023.76 1023.54 1023.32 1023.11 1022.90 1022.70 1022.50 1022.30 1022.10 1021.91 1021.72 1021.56 1021.42 1021.31 1021.23 1021.19 1021.17 1021.18 1021.20 1021.22 1021.22 1021.19 1021.13 1021.03 1020.89 1020.71
1024.09 1024.26 1024.41 1024.56 1024.69 1024.80 1024.89 1024.95 1024.97 1024.95 1024.90 1024.80 1024.67 1024.51 1024.33 1024.12 1023.91 1023.70 1023.48 1023.27 1023.05 1022.83 1022.60 1022.36 1022.13 1021.89 1021.65 1021.44 1021.24 1021.08 1020.96 1020.88 1020.83 1020.82 1020.83 1020.84 1020.85 1020.84 1020.79 1020.70 1020.57 1020.39 1020.17
1024.05 1024.18 1024.30 1024.41 1024.52 1024.61 1024.67 1024.71 1024.72 1024.70 1024.64 1024.55 1024.43 1024.29 1024.12 1023.95 1023.76 1023.57 1023.37 1023.16 1022.94 1022.71 1022.46 1022.20 1021.93 1021.66 1021.39 1021.15 1020.93 1020.75 1020.62 1020.53 1020.48 1020.46 1020.46 1020.46 1020.45 1020.41 1020.33 1020.20 1020.02 1019.79 1019.52
1024.00 1024.07 1024.14 1024.21 1024.27 1024.32 1024.36 1024.37 1024.36 1024.32 1024.27 1024.18 1024.08 1023.96 1023.83 1023.69 1023.53 1023.37 1023.19 1023.00 1022.78 1022.55 1022.28 1022.00 1021.71 1021.41 1021.12 1020.86 1020.62 1020.43 1020.28 1020.18 1020.11 1020.08 1020.06 1020.03 1019.99 1019.91 1019.78 1019.59 1019.36 1019.07 1018.72
1023.91 1023.92 1023.94 1023.96 1023.97 1023.97 1023.96 1023.94 1023.91 1023.86 1023.79 1023.72 1023.63 1023.54 1023.44 1023.33 1023.21 1023.08 1022.93 1022.75 1022.55 1022.31 1022.04 1021.75 1021.44 1021.12 1020.82 1020.53 1020.28 1020.07 1019.90 1019.78 1019.70 1019.63 1019.58 1019.51 1019.42 1019.29 1019.10 1018.86 1018.56 1018.21 1017.81
1023.77 1023.74 1023.71 1023.67 1023.63 1023.58 1023.53 1023.47 1023.41 1023.34 1023.26 1023.19 1023.12 1023.05 1022.97 1022.90 1022.81 1022.70 1022.57 1022.41 1022.21 1021.97 1021.70 1021.40 1021.08 1020.75 1020.43 1020.14 1019.87 1019.65 1019.46 1019.32 1019.20 1019.11 1019.01 1018.90 1018.76 1018.57 1018.33 1018.03 1017.67 1017.27 1016.83
1023.60 1023.53 1023.45 1023.37 1023.28 1023.19 1023.09 1022.99 1022.90 1022.81 1022.73 1022.65 1022.58 1022.52 1022.46 1022.40 1022.33 1022.24 1022.12 1021.96 1021.77 1021.53 1021.26 1020.95 1020.62 1020.29 1019.96 1019.66 1019.38 1019.15 1018.95 1018.78 1018.64 1018.51 1018.38 1018.23 1018.03 1017.80 1017.51 1017.17 1016.78 1016.34 1015.88
1023.40 1023.30 1023.19 1023.07 1022.95 1022.82 1022.68 1022.56 1022.43 1022.32 1022.22 1022.13 1022.06 1021.99 1021.94 1021.88 1021.81 1021.71 1021.59 1021.43 1021.23 1020.99 1020.71 1020.40 1020.07 1019.74 1019.41 1019.11 1018.83 1018.59 1018.38 1018.20 1018.05 1017.89 1017.73 1017.55 1017.32 1017.06 1016.74 1016.38 1015.97 1015.53 1015.06
Thickness
5594 5591 5588 5585 5583 5581 5579 5577 5576 5575 5575 5574 5574 5575 5576 5576 5577 5577 5578 5579 5579 5578 5579 5579 5580 5580 5581 5581 5581 5581 5581 5581 5580 5578 5577 5578 5579 5580 5580 5581 5581 5580 5580
5585 5583 5579 5576 5573 5570 5568 5567 5566 5566 5565 5564 5565 5566 5566 5567 5567 5568 5568 5569 5570 5570 5570 5571 5571 5571 5571 5572 5573 5573 5573 5573 5572 5571 5570 5570 5570 5570 5571 5571 5571 5572 5571
5576 5574 5570 5566 5563 5561 5560 5558 5557 5556 5555 5555 5556 5556 5557 5557 5557 5558 5559 5560 5560 5561 5561 5562 5562 5563 5563 5563 5564 5565 5565 5565 5564 5564 5562 5561 5561 5562 5562 5562 5562 5562 5563
5568 5565 5561 5557 5555 5553 5551 5550 5548 5547 5547 5547 5547 5548 5548 5548 5548 5549 5550 5551 5551 5552 5553 5554 5554 5555 5555 5556 5557 5557 5557 5557 5557 5556 5555 5554 5553 5553 5554 5554 5553 5553 5554
5561 5557 5553 5550 5548 5546 5544 5542 5541 5540 5539 5539 5539 5540 5540 5540 5540 5541 5542 5542 5543 5544 5546 5547 5548 5549 5549 5550 5551 5551 5551 5551 5550 5549 5548 5548 5547 5547 5547 5546 5546 5545 5545
5555 5551 5547 5544 5541 5539 5537 5536 5535 5534 5533 5532 5532 5532 5532 5532 5533 5534 5535 5535 5536 5536 5538 5539 5541 5542 5543 5544 5545 5546 5546 5546 5545 5544 5543 5543 5542 5542 5541 5540 5539 5540 5539
5549 5546 5542 5539 5536 5534 5532 5530 5529 5527 5526 5525 5525 5525 5525 5525 5526 5528 5529 5529 5529 5529 5530 5532 5534 5535 5536 5538 5539 5540 5540 5540 5541 5540 5539 5539 5538 5538 5537 5536 5535 5534 5534
5544 5541 5538 5535 5531 5529 5527 5525 5524 5522 5521 5520 5519 5519 5519 5519 5521 5522 5523 5524 5523 5523 5524 5525 5526 5528 5530 5531 5533 5533 5534 5534 5535 5536 5536 5535 5534 5533 5533 5532 5531 5529 5529
5540 5537 5534 5530 5527 5525 5523 5521 5519 5518 5517 5516 5515 5514 5514 5515 5516 5517 5518 5518 5518 5518 5519 5520 5521 5523 5523 5525 5527 5528 5528 5528 5530 5531 5531 5531 5531 5530 5530 5529 5528 5528 5528
5536 5533 5530 5527 5524 5521 5519 5517 5515 5514 5513 5512 5512 5511 5511 5511 5512 5513 5514 5514 5513 5513 5515 5516 5517 5518 5519 5521 5522 5524 5524 5524 5525 5527 5527 5528 5528 5528 5528 5527 5527 5527 5526
5534 5530 5527 5524 5521 5519 5516 5514 5512 5511 5510 5509 5509 5509 5509 5509 5510 5511 5511 5511 5510 5511 5511 5512 5513 5515 5516 5517 5518 5519 5520 5521 5522 5523 5524 5525 5526 5526 5526 5526 5525 5525 5525
5531 5528 5525 5522 5520 5518 5515 5512 5510 5509 5508 5507 5507 5507 5508 5508 5508 5509 5509 5509 5509 5509 5510 5510 5511 5513 5514 5516 5517 5517 5519 5520 5520 5521 5522 5523 5524 5525 5525 5525 5524 5524 5523
5529 5526 5524 5521 5519 5516 5514 5511 5510 5508 5507 5506 5506 5506 5507 5508 5508 5509 5509 5509 5510 5509 5510 5511 5512 5514 5515 5516 5517 5517 5518 5518 5519 5519 5520 5521 5522 5522 5523 5524 5524 5524 5524
5528 5525 5523 5520 5518 5515 5513 5512 5510 5509 5508 5507 5507 5507 5507 5508 5509 5510 5510 5511 5511 5511 5512 5513 5514 5515 5516 5516 5517 5518 5518 5518 5518 5519 5520 5521 5522 5523 5523 5524 5524 5524 5524
5528 5525 5523 5520 5518 5516 5514 5512 5512 5511 5509 5509 5509 5509 5509 5510 5511 5511 5512 5512 5513 5513 5514 5515 5516 5517 5518 5519 5519 5519 5520 5520 5520 5521 5522 5523 5523 5524 5524 5523 5523 5522 5523
5529 5526 5524 5522 5519 5517 5516 5515 5515 5514 5514 5514 5513 5513 5513 5514 5515 5515 5516 5516 5516 5516 5516 5517 5517 5518 5519 5519 5520 5521 5522 5523 5523 5523 5524 5524 5524 5525 5525 5524 5523 5522 5522
5532 5529 5526 5524 5523 5521 5519 5518 5518 5518 5519 5519 5519 5519 5519 5520 5520 5520 5520 5520 5520 5520 5520 5520 5520 5521 5522 5522 5523 5523 5524 5525 5525 5525 5526 5526 5526 5525 5525 5525 5525 5524 5523
5534 5532 5530 5528 5527 5525 5523 5522 5521 5521 5522 5523 5524 5525 5525 5526 5526 5526 5525 5524 5525 5525 5524 5525 5525 5526 5526 5527 5527 5528 5528 5528 5528 5528 5528 5528 5527 5527 5526 5526 5525 5524 5523
5538 5535 5533 5532 5531 5529 5528 5527 5526 5526 5526 5526 5528 5530 5531 5531 5531 5530 5530 5529 5530 5531 5531 5530 5530 5531 5531 5531 5531 5531 5531 5532 5531 5531 5531 5530 5530 5529 5528 5527 5526 5524 5522
5541 5540 5538 5536 5535 5534 5533 5532 5532 5532 5532 5532 5534 5535 5535 5535 5536 5536 5535 5535 5535 5536 5536 5536 5537 5537 5536 5536 5536 5536 5536 5536 5535 5534 5534 5533 5532 5531 5530 5529 5528 5526 5525
5545 5544 5543 5541 5540 5540 5539 5538 5538 5538 5539 5539 5541 5542 5541 5541 5542 5543 5543 5543 5543 5543 5543 5543 5543 5543 5543 5542 5542 5541 5541 5540 5539 5539 5538 5537 5535 5534 5532 5530 5528 5527 5525
5550 5549 5548 5547 5546 5546 5545 5545 5545 5545 5545 5546 5548 5549 5549 5548 5549 5550 5550 5551 5551 5551 5550 5550 5550 5550 5549 5548 5547 5546 5545 5545 5544 5542 5541 5539 5538 5536 5534 5532 5530 5528 5526
5555 5554 5553 5552 5552 5551 5551 5551 5551 5551 5552 5553 5554 5555 5556 5556 5556 5557 5558 5559 5559 5558 5558 5557 5556 5556 5556 5554 5553 5551 5550 5549 5548 5546 5544 5542 5540 5538 5536 5533 5531 5529 5527
5560 5560 5559 5558 5557 5557 5557 5557 5557 5558 5558 5559 5560 5561 5562 5563 5563 5564 5565 5565 5565 5565 5565 5564 5563 5562 5562 5560 5558 5557 5555 5554 5552 5549 5547 5544 5542 5541 5538 5535 5533 5530 5528
5565 5564 5564 5563 5563 5563 5563 5563 5563 5564 5565 5565 5566 5567 5568 5569 5569 5570 5571 5571 5571 5571 5571 5570 5569 5568 5567 5565 5564 5562 5561 5558 5556 5552 5549 5546 5544 5542 5539 5536 5533 5530 5527
5570 5569 5569 5569 5568 5568 5568 5568 5569 5570 5570 5571 5572 5572 5573 5574 5575 5576 5576 5576 5576 5576 5576 5575 5574 5573 5572 5570 5569 5567 5565 5562 5559 5556 5551 5548 5545 5543 5539 5536 5533 5530 5527